Regional Weather Roundup
Issued by NWS

Home | Current Version | Previous Version | Graphics & Text | Print | Product List | Glossary On
Versions: 1 2 3 4 5 6 7 8 9 10 11 12 13 14 15 16 17 18 19 20 21 22 23 24 25 26 27 28 29 30 31 32 33 34 35 36 37 38 39 40 41 42 43 44 45 46 47 48 49 50
000
ASUS43 KLSX 220207
RWRMO

WEATHER SUMMARY FOR MISSOURI
NATIONAL WEATHER SERVICE SPRINGFIELD MO
800 PM CST WED FEB 21 2018

NOTE: "FAIR" INDICATES FEW OR NO CLOUDS BELOW 12,000 FEET WITH NO
       SIGNIFICANT WEATHER AND/OR OBSTRUCTIONS TO VISIBILITY.
       CURRENT SKY AND/OR WEATHER CONDITIONS ARE NOT AVAILABLE FOR
       CHILLICOTHE AND FARMINGTON.

MOZ001>031-035>038-043-044-053-054-220300-
...NORTHERN AND WESTERN MISSOURI...

CITY           SKY/WX    TMP DP  RH WIND       PRES   REMARKS
KANSAS CTY INT CLOUDY    27  23  85 E12       30.49F WCI  17
KANSAS C DTWN  CLOUDY    29  21  72 NE10      30.50F WCI  20
LEE`S SUMMIT   CLOUDY    26  24  92 NE13      30.49F WCI  15
ST JOSEPH      CLOUDY    27  22  81 E10       30.53S WCI  17
CHILLICOTHE      N/A     27  21  78 NE6       30.55S WCI  20
KIRKSVILLE     FAIR      27  21  78 NE10      30.56R WCI  17

$$
MOZ066>068-077>081-088>096-101>105-220300-
...SOUTHWEST MISSOURI...

CITY           SKY/WX    TMP DP  RH WIND       PRES   REMARKS
SPRINGFIELD    CLOUDY    28  26  92 E13       30.37F WCI  17
JOPLIN         CLOUDY    28  27  96 E13G25    30.34F WCI  17
BRANSON        FRZ RAIN  30  30 100 E3        30.40F FOG

$$
MOZ032>034-039>042-045>050-055>058-069>072-220300-
...CENTRAL MISSOURI...

CITY           SKY/WX    TMP DP  RH WIND       PRES   REMARKS
COLUMBIA       CLOUDY    29  26  89 E10       30.50S WCI  20
JEFFERSON CITY CLOUDY    29  25  85 E7        30.53S WCI  22
ROLLA          CLOUDY    27  26  96 NE12      30.49R FOG     WCI  17
SEDALIA        CLOUDY    30  26  85 E10       30.50F WCI  21
WHITEMAN AFB   CLOUDY    29  22  74 NE10      30.44F WCI  20
WARRENSBURG    CLOUDY    28  23  80 NE5       30.50S WCI  23
OSAGE BEACH    CLOUDY    27  26  96 E9        30.50R WCI  18

$$
MOZ051-052-059>065-220300-
...EAST CENTRAL MISSOURI...

CITY           SKY/WX    TMP DP  RH WIND       PRES   REMARKS
ST LOUIS INTL  CLOUDY    31  30  96 NE12      30.50F WCI  22
SPIRIT OF STL  CLOUDY    31  29  92 NE9       30.51F WCI  23
ST CHARLES     CLOUDY    31  28  89 NE13      30.50F WCI  21

$$
MOZ072>076-082>087-097>100-106>115-220300-
...SOUTH CENTRAL AND SOUTHEAST MISSOURI...

CITY           SKY/WX    TMP DP  RH WIND       PRES   REMARKS
CAPE GIRARDEAU LGT RAIN  35  33  92 N16       30.44S FOG     WCI  25
FARMINGTON     MIX PCPN  31  30  96 N13       30.46F FOG     WCI  21
POPLAR BLUFF   RAIN      34  33  96 N17       30.41F FOG     WCI  23
WEST PLAINS    FRZ RAIN  31  30  96 N9        30.40S FOG     WCI  23

$$



USA.gov is the U.S. government's official web portal to all federal, state and local government web resources and services.